Regional Weather Roundup
Issued by NWS

Home | Current Version | Previous Version | Graphics & Text | Print | Product List | Glossary Off
Versions: 1 2 3 4 5 6 7 8 9 10 11 12 13 14 15 16 17 18 19 20 21 22 23 24 25 26 27 28 29 30 31 32 33 34 35 36 37 38 39 40 41 42 43 44 45 46 47 48 49 50

000
ASUS45 KBOI 010410
RWRID
WEATHER ROUNDUP FOR IDAHO
NATIONAL WEATHER SERVICE BOISE ID
900 PM MST SAT FEB 28 2015

NOTE: "FAIR" INDICATES FEW OR NO CLOUDS BELOW 12000 FEET
WITH NO SIGNIFICANT WEATHER AND/OR OBSTRUCTIONS TO VISIBILITY

IDZ012-014-010500-
SOUTHWEST IDAHO


CITY           SKY/WX    TMP DP  RH WIND       PRES   REMARKS
BOISE          CLEAR     39  26  59 NW6       29.93R WCI  35
CALDWELL       PTCLDY    37  19  48 W15       29.98R WCI  28
MOUNTAIN HOME  CLOUDY    41  33  74 N7        29.93R
$$

IDZ016-017-010500-
SOUTHCENTRAL IDAHO


CITY           SKY/WX    TMP DP  RH WIND       PRES   REMARKS
BURLEY         PTCLDY    31  14  49 E5        29.91R WCI  26
JEROME         CLEAR     31  22  69 N9        29.93R WCI  23
TWIN FALLS     CLEAR     31  25  78 SW8       29.92R WCI  23
$$

IDZ019>023-010500-
SOUTHEAST IDAHO


CITY           SKY/WX    TMP DP  RH WIND       PRES   REMARKS
IDAHO FALLS    CLEAR     26  11  52 N17       29.96R WCI  13
POCATELLO      CLEAR     28  11  48 NE12      29.95R WCI  18
REXBURG        CLEAR     24  10  55 N10       29.96R WCI  14
$$

IDZ006-010-011-018-031-032-010500-
CENTRAL IDAHO MOUNTAINS


CITY           SKY/WX    TMP DP  RH WIND       PRES   REMARKS
MCCALL         CLEAR     29  13  51 N14       29.95R WCI  18
HAILEY         CLOUDY    30  28  93 NW6       29.93R WCI  24
STANLEY          N/A     27  12  53 NW9G18    29.93R WCI  18
SALMON         CLEAR     25  12  58 NW3       30.05R
CHALLIS        CLEAR     27  11  51 NW10      29.98R WCI  17
$$

IDZ002-004-006-007-026-010500-
NORTHERN IDAHO


CITY           SKY/WX    TMP DP  RH WIND       PRES   REMARKS
LEWISTON       CLEAR     35  18  49 W9        30.14R WCI  28
LOWELL           N/A     31  22  69 CALM      30.16R
COEUR D`ALENE  CLEAR     28   9  43 NE8       30.16R WCI  20
MULLAN PASS    CLEAR     16  -3  43 SE8       30.03R WCI   5
$$


USA.gov is the U.S. government's official web portal to all federal, state and local government web resources and services.